Regional Weather Roundup
Issued by NWS

Home | Current Version | Previous Version | Graphics & Text | Print | Product List | Glossary On
Versions: 1 2 3 4 5 6 7 8 9 10 11 12 13 14 15 16 17 18 19 20 21 22 23 24 25 26 27 28 29 30 31 32 33 34 35 36 37 38 39 40 41 42 43 44 45 46 47 48 49 50
000
ASUS43 KTOP 250008
RWRKS

WEATHER ROUNDUP FOR KANSAS
NATIONAL WEATHER SERVICE GOODLAND KS
700 PM CDT SAT OCT 24 2020

NOTE:  "FAIR" INDICATES FEW OR NO CLOUDS BELOW 12,000 FEET WITH NO
SIGNIFICANT WEATHER AND/OR OBSTRUCTIONS TO VISIBILITY.

KSZ001>006-013>018-027>032-041>047-250100-
NORTHWEST KANSAS

CITY           SKY/WX    TMP DP  RH WIND       PRES   REMARKS
GOODLAND       PTCLDY    38  26  62 E15       29.90R WCI  29
6HR MIN TEMP:  32; 6HR MAX TEMP:  45;

HAYS           PTCLDY    39  26  59 E17       30.02S WCI  30
HILL CITY      MOCLDY    36  25  64 E14       30.01F WCI  27
6HR MIN TEMP:  36; 6HR MAX TEMP:  44;

RUSSELL        CLOUDY    37  25  61 E15       30.03R WCI  28
6HR MIN TEMP:  37; 6HR MAX TEMP:  45;

$$

KSZ061>065-074>080-084>089-250100-
SOUTHWEST KANSAS

CITY           SKY/WX    TMP DP  RH WIND       PRES   REMARKS
DODGE CITY     CLEAR     46  28  49 E14       29.92R
6HR MIN TEMP:  45; 6HR MAX TEMP:  53;

ELKHART        CLEAR     58  35  41 E22       29.76R
GARDEN CITY    CLEAR     47  29  49 E15       29.87S
6HR MIN TEMP:  44; 6HR MAX TEMP:  53;

GREAT BEND     PTCLDY    39  28  64 E12       30.03R WCI  32
LIBERAL        CLEAR     53  31  42 SE18G26   29.83R
PRATT          CLEAR     42  27  55 E9        30.00S
6HR MIN TEMP:  42; 6HR MAX TEMP:  48;

$$

KSZ066>073-081>083-090>101-250100-
SOUTHEAST KANSAS

CITY           SKY/WX    TMP DP  RH WIND       PRES   REMARKS
CHANUTE        CLOUDY    44  35  70 NE9       30.07R
6HR MIN TEMP:  44; 6HR MAX TEMP:  46;

COFFEYVILLE    CLOUDY    46  35  65 NE5       30.05R
6HR MIN TEMP:  44; 6HR MAX TEMP:  47;

HUTCHINSON     CLOUDY    41  28  60 E9        30.05R
6HR MIN TEMP:  39; 6HR MAX TEMP:  45;

MEDICINE LODGE   N/A     42  30  62 E8        29.99S
NEWTON         CLOUDY    38  29  70 E6        30.07R
PARSONS          N/A    N/A N/A N/A MISG      30.07R
WICHITA INTL   CLOUDY    41  31  67 E10       30.04R
6HR MIN TEMP:  37; 6HR MAX TEMP:  42;

WICHITA JABRA  CLOUDY    40  30  67 E7        30.05R
6HR MIN TEMP:  38; 6HR MAX TEMP:  41;

WICHITA MCCONL CLOUDY    41  29  63 E9        30.04R
WINFIELD       CLOUDY    44  32  62 E7        30.05R
6HR MIN TEMP:  41; 6HR MAX TEMP:  46;

$$

KSZ007>012-019>026-033>040-048>060-102>105-250100-
NORTHEAST KANSAS

CITY           SKY/WX    TMP DP  RH WIND       PRES   REMARKS
CONCORDIA      CLOUDY    38  27  64 E7        30.11R
6HR MIN TEMP:  37; 6HR MAX TEMP:  39;

EMPORIA        CLOUDY    41  31  67 NE10      30.07S
6HR MIN TEMP:  39; 6HR MAX TEMP:  42;

LAWRENCE       CLOUDY    41  33  73 NE9       30.12R
6HR MIN TEMP:  41; 6HR MAX TEMP:  43;

MANHATTAN      CLOUDY    39  28  64 NE8       30.12R
6HR MIN TEMP:  39; 6HR MAX TEMP:  40;

MARYSVILLE     CLOUDY    36  30  80 E7        30.12S
OLATHE IND     CLOUDY    40  31  70 E14       30.11S WCI  32
6HR MIN TEMP:  40; 6HR MAX TEMP:  41;

OLATHE EXE     CLOUDY    40  33  76 NE7       30.10F
6HR MIN TEMP:  39; 6HR MAX TEMP:  41;

SALINA         CLOUDY    40  29  64 E12       30.09R WCI  33
6HR MIN TEMP:  37; 6HR MAX TEMP:  41;

TOPEKA BILLARD CLOUDY    41  30  65 NE7       30.12R
6HR MIN TEMP:  40; 6HR MAX TEMP:  42;

TOPEKA FORBES  CLOUDY    41  32  70 NE6       30.11R
6HR MIN TEMP:  39; 6HR MAX TEMP:  42;

$$



USA.gov is the U.S. government's official web portal to all federal, state and local government web resources and services.